Regional Weather Roundup
Issued by NWS Cleveland, OH

Home | Current Version | Previous Version | Text Only | Print | Product List | Glossary Off
Versions: 1 2 3 4 5 6 7 8 9 10 11 12 13 14 15 16 17 18 19 20 21 22 23 24 25 26 27 28 29 30 31 32 33 34 35 36 37 38 39 40 41 42 43 44 45 46 47 48 49 50

000
ASUS41 KCLE 260110
RWRCLE
OHIO REGIONAL WEATHER ROUNDUP
NATIONAL WEATHER SERVICE WILMINGTON, OH
800 PM EST TUE NOV 25 2014

NOTE: "FAIR" INDICATES FEW OR NO CLOUDS BELOW 12,000 FEET WITH NO
SIGNIFICANT WEATHER AND/OR OBSTRUCTIONS TO VISIBILITY.

OHZ001>008-015>018-024>027-034-035-043-044-260200-
   NORTHWEST OHIO

CITY           SKY/WX    TMP DP  RH WIND       PRES   REMARKS
DEFIANCE       NOT AVBL
FINDLAY        CLOUDY    30  21  69 W6        30.19R WCI  24
TOLEDO EXPRESS CLOUDY    28  20  71 W6        30.19R WCI  22
TOLEDO METCALF CLOUDY    30  20  66 W5        30.21R WCI  25
LIMA           CLOUDY    29  22  75 SW6       30.19R WCI  23
$$

OHZ009>014-019>023-028>033-038-089-260200-
   NORTHEAST OHIO

CITY           SKY/WX    TMP DP  RH WIND       PRES   REMARKS
CLE-HOPKINS    CLOUDY    32  25  75 W10       30.22R WCI  24
CLE-LAKEFRONT  CLOUDY    33  24  69 SW12G23   30.19R WCI  24
CUY CO. ARPT   CLOUDY    34  27  75 W14       30.19R WCI  24
LORAIN-ELYRIA  CLOUDY    31  23  72 W7        30.20R WCI  24
ASHTABULA      CLOUDY    33  25  72 W10G21    30.18R WCI  25
AKRON-CANTON   CLOUDY    35  27  72 W6        30.16R
WOOSTER        CLOUDY    32  27  81 NW10      30.18R WCI  24
MANSFIELD      CLOUDY    30  24  78 W7        30.17R WCI  23
YOUNGSTOWN     CLOUDY    36  26  67 NW5       30.15R
$$

OHZ042-051>053-060>062-070>072-077>081-260200-
  SOUTHWEST OHIO

CITY           SKY/WX    TMP DP  RH WIND       PRES   REMARKS
CINC-COVINGTON CLOUDY    35  26  69 N9        30.14F WCI  28
CINC-LUNKEN    PTCLDY    36  28  73 N8        30.18S
HAMILTON       PTCLDY    32  26  78 N3        30.18S
DAYTON         MOCLDY    31  26  82 N8        30.17S WCI  23
WRIGHT-PAT AFB MOCLDY    32  27  80 N8        30.17S WCI  25
DAYTON GENERAL PTCLDY    33  27  78 N8        30.15F WCI  26
WILMINGTON     PTCLDY    32  26  78 N6        30.15S WCI  26
$$

OHZ036-037-039>041-045>050-054>059-063>069-073>076-082>088-260200-
  CENTRAL AND SOUTHEAST OHIO

CITY           SKY/WX    TMP DP  RH WIND       PRES   REMARKS
COLUMBUS       PTCLDY    34  27  75 N12       30.15F WCI  25
OSU AIRPORT    CLOUDY    33  26  75 N10       30.16F WCI  25
BOLTON FIELD   NOT AVBL
RICKENBACK AFB PTCLDY    34  29  82 N6        30.16S WCI  29
NEWARK         PTCLDY    32  26  78 N3        30.16R
MARION         CLOUDY    29  23  78 NW10      30.19R WCI  20
LANCASTER      PTCLDY    28  24  85 CALM      30.16R
ZANESVILLE     CLEAR     32  24  72 CALM      30.16R
NEW PHILLY     CLEAR     33  25  72 CALM      30.17R
$$


USA.gov is the U.S. government's official web portal to all federal, state and local government web resources and services.